Time,TemperatureF,DewpointF,PressureIn,WindDirection,WindDirectionDegrees,WindSpeedMPH,WindSpeedGustMPH,Humidity,HourlyPrecipIn,Conditions,Clouds,dailyrainin,SoftwareType,DateUTC
2013-05-24 00:02:00,61.9,59.0,29.78,WNW,300,1.0,3.0,90,0.00,,,0.45,meteohub,2013-05-24 04:02:00,
2013-05-24 00:05:00,61.9,59.0,29.78,WNW,292,1.0,3.0,90,0.00,,,0.00,meteohub,2013-05-24 04:05:00,
2013-05-24 00:11:00,62.1,58.8,29.78,WNW,294,0.0,3.0,89,0.00,,,0.00,meteohub,2013-05-24 04:11:00,
2013-05-24 00:14:00,62.1,58.8,29.78,WNW,294,1.0,3.0,89,0.00,,,0.00,meteohub,2013-05-24 04:14:00,
2013-05-24 00:20:00,62.1,59.2,29.78,WNW,294,0.0,2.0,90,0.00,,,0.00,meteohub,2013-05-24 04:20:00,
2013-05-24 00:23:00,62.1,59.2,29.78,WNW,294,1.0,2.0,90,0.00,,,0.00,meteohub,2013-05-24 04:23:00,
2013-05-24 00:29:00,61.9,59.2,29.78,NNW,327,1.0,2.0,91,0.00,,,0.00,meteohub,2013-05-24 04:29:00,
2013-05-24 00:35:00,61.9,59.2,29.78,NW,305,1.0,4.0,91,0.00,,,0.00,meteohub,2013-05-24 04:35:00,
2013-05-24 00:42:00,61.5,58.8,29.78,WNW,303,2.0,4.0,91,0.00,,,0.00,meteohub,2013-05-24 04:42:00,
2013-05-24 00:47:00,61.3,59.0,29.78,NNW,340,0.0,3.0,92,0.00,,,0.00,meteohub,2013-05-24 04:47:00,
2013-05-24 00:52:00,61.3,58.6,29.78,NW,325,0.0,2.0,91,0.00,,,0.00,meteohub,2013-05-24 04:52:00,
2013-05-24 00:57:00,61.5,58.8,29.78,NW,325,0.0,2.0,91,0.00,,,0.00,meteohub,2013-05-24 04:57:00,
2013-05-24 01:02:00,61.3,59.0,29.79,NW,325,0.0,2.0,92,0.00,,,0.00,meteohub,2013-05-24 05:02:00,
2013-05-24 01:07:00,61.3,58.6,29.78,NW,325,0.0,2.0,91,0.00,,,0.00,meteohub,2013-05-24 05:07:00,
2013-05-24 01:12:00,61.2,58.8,29.78,East,79,2.0,2.0,92,0.00,,,0.00,meteohub,2013-05-24 05:12:00,
2013-05-24 01:17:00,61.2,57.9,29.78,NW,306,0.0,2.0,89,0.00,,,0.00,meteohub,2013-05-24 05:17:00,
2013-05-24 01:22:00,61.2,57.6,29.78,NW,312,0.0,4.0,88,0.00,,,0.00,meteohub,2013-05-24 05:22:00,
2013-05-24 01:27:00,61.2,57.6,29.78,NW,321,0.0,4.0,88,0.00,,,0.00,meteohub,2013-05-24 05:27:00,
2013-05-24 01:32:00,61.2,57.9,29.78,NW,319,0.0,4.0,89,0.00,,,0.00,meteohub,2013-05-24 05:32:00,
2013-05-24 01:37:00,61.2,57.9,29.78,NW,321,0.0,2.0,89,0.00,,,0.00,meteohub,2013-05-24 05:37:00,
2013-05-24 01:42:00,61.0,58.1,29.78,NW,321,0.0,2.0,90,0.00,,,0.00,meteohub,2013-05-24 05:42:00,
2013-05-24 01:47:00,61.0,57.7,29.78,NW,321,0.0,2.0,89,0.00,,,0.00,meteohub,2013-05-24 05:47:00,
2013-05-24 01:52:00,60.8,57.2,29.78,NNW,335,0.0,1.0,88,0.00,,,0.00,meteohub,2013-05-24 05:52:00,
2013-05-24 01:57:00,60.6,57.4,29.77,NNW,335,0.0,3.0,89,0.00,,,0.00,meteohub,2013-05-24 05:57:00,
2013-05-24 02:02:00,60.6,57.4,29.78,NNW,335,0.0,3.0,89,0.00,,,0.00,meteohub,2013-05-24 06:02:00,
2013-05-24 02:07:00,60.4,57.2,29.78,NNW,335,1.0,1.0,89,0.00,,,0.00,meteohub,2013-05-24 06:07:00,
2013-05-24 02:12:00,60.4,57.6,29.78,NNW,335,0.0,1.0,90,0.00,,,0.00,meteohub,2013-05-24 06:12:00,
2013-05-24 02:17:00,60.4,57.6,29.78,NNW,335,0.0,1.0,90,0.00,,,0.00,meteohub,2013-05-24 06:17:00,
2013-05-24 02:22:00,60.4,57.7,29.77,NNW,335,0.0,1.0,91,0.00,,,0.00,meteohub,2013-05-24 06:22:00,
2013-05-24 02:27:00,60.3,57.9,29.77,NNW,335,0.0,1.0,92,0.00,,,0.00,meteohub,2013-05-24 06:27:00,
2013-05-24 02:32:00,60.3,57.0,29.77,NNW,335,1.0,0.0,89,0.00,,,0.00,meteohub,2013-05-24 06:32:00,
2013-05-24 02:37:00,60.3,57.0,29.77,NNW,333,0.0,1.0,89,0.00,,,0.00,meteohub,2013-05-24 06:37:00,
2013-05-24 02:42:00,60.4,56.8,29.77,NNW,328,0.0,1.0,88,0.00,,,0.00,meteohub,2013-05-24 06:42:00,
2013-05-24 02:47:00,60.6,57.0,29.76,NNW,328,0.0,1.0,88,0.00,,,0.00,meteohub,2013-05-24 06:47:00,
2013-05-24 02:52:00,60.6,57.7,29.76,NNW,328,0.0,1.0,90,0.00,,,0.00,meteohub,2013-05-24 06:52:00,
2013-05-24 02:57:00,60.6,57.4,29.77,NNW,328,0.0,1.0,89,0.00,,,0.00,meteohub,2013-05-24 06:57:00,
2013-05-24 03:02:00,60.6,57.9,29.77,NNW,328,2.0,2.0,91,0.00,,,0.00,meteohub,2013-05-24 07:02:00,
2013-05-24 03:07:00,60.4,57.7,29.77,NNW,335,0.0,3.0,91,0.00,,,0.00,meteohub,2013-05-24 07:07:00,
2013-05-24 03:12:00,60.3,57.6,29.77,NW,321,1.0,3.0,91,0.00,,,0.00,meteohub,2013-05-24 07:12:00,
2013-05-24 03:17:00,60.1,57.4,29.77,NW,306,1.0,3.0,91,0.00,,,0.00,meteohub,2013-05-24 07:17:00,
2013-05-24 03:22:00,59.9,57.6,29.77,NW,304,0.0,3.0,92,0.00,,,0.00,meteohub,2013-05-24 07:22:00,
2013-05-24 03:27:00,59.7,57.0,29.77,NNW,345,3.0,3.0,91,0.00,,,0.00,meteohub,2013-05-24 07:27:00,
2013-05-24 03:32:00,59.5,56.8,29.77,NNW,348,0.0,4.0,91,0.00,,,0.00,meteohub,2013-05-24 07:32:00,
2013-05-24 03:37:00,59.5,57.2,29.77,NNW,344,0.0,4.0,92,0.00,,,0.00,meteohub,2013-05-24 07:37:00,
2013-05-24 03:42:00,59.2,56.3,29.77,SSE,155,2.0,4.0,90,0.00,,,0.00,meteohub,2013-05-24 07:42:00,
2013-05-24 03:47:00,58.8,55.6,29.78,NNW,340,1.0,5.0,89,0.00,,,0.00,meteohub,2013-05-24 07:47:00,
2013-05-24 03:52:00,58.6,55.4,29.78,NW,306,2.0,5.0,89,0.00,,,0.00,meteohub,2013-05-24 07:52:00,
2013-05-24 03:57:00,58.3,54.7,29.78,NW,315,0.0,5.0,88,0.00,,,0.00,meteohub,2013-05-24 07:57:00,
2013-05-24 04:02:00,57.9,54.3,29.79,WNW,294,2.0,4.0,88,0.00,,,0.00,meteohub,2013-05-24 08:02:00,
2013-05-24 04:07:00,57.4,53.6,29.79,ENE,67,1.0,4.0,87,0.00,,,0.00,meteohub,2013-05-24 08:07:00,
2013-05-24 04:12:00,56.8,53.1,29.80,North,11,0.0,6.0,87,0.00,,,0.00,meteohub,2013-05-24 08:12:00,
2013-05-24 04:17:00,56.5,52.9,29.81,North,355,2.0,6.0,88,0.00,,,0.00,meteohub,2013-05-24 08:17:00,
2013-05-24 04:22:00,55.9,52.2,29.81,WNW,298,1.0,5.0,87,0.00,,,0.00,meteohub,2013-05-24 08:22:00,
2013-05-24 04:27:00,55.8,52.0,29.81,NNE,27,1.0,5.0,87,0.00,,,0.00,meteohub,2013-05-24 08:27:00,
2013-05-24 04:32:00,55.2,51.4,29.82,NW,308,0.0,5.0,87,0.00,,,0.00,meteohub,2013-05-24 08:32:00,
2013-05-24 04:37:00,55.0,51.3,29.82,NNW,338,0.0,4.0,87,0.00,,,0.00,meteohub,2013-05-24 08:37:00,
2013-05-24 04:42:00,54.7,50.5,29.83,NW,305,0.0,5.0,86,0.00,,,0.00,meteohub,2013-05-24 08:42:00,
2013-05-24 04:47:00,54.3,50.5,29.83,East,84,2.0,5.0,87,0.00,,,0.00,meteohub,2013-05-24 08:47:00,
2013-05-24 04:52:00,53.8,49.5,29.83,NW,304,4.0,6.0,85,0.00,,,0.00,meteohub,2013-05-24 08:52:00,
2013-05-24 04:57:00,53.4,49.1,29.84,NW,325,0.0,6.0,85,0.00,,,0.00,meteohub,2013-05-24 08:57:00,
2013-05-24 05:02:00,53.1,48.9,29.84,NNW,331,2.0,6.0,86,0.00,,,0.00,meteohub,2013-05-24 09:02:00,
2013-05-24 05:07:00,52.9,48.7,29.84,NW,311,2.0,5.0,86,0.00,,,0.00,meteohub,2013-05-24 09:07:00,
2013-05-24 05:12:00,52.5,48.2,29.85,WNW,296,0.0,4.0,85,0.00,,,0.00,meteohub,2013-05-24 09:12:00,
2013-05-24 05:17:00,52.3,48.6,29.86,NW,319,0.0,5.0,87,0.00,,,0.00,meteohub,2013-05-24 09:17:00,
2013-05-24 05:22:00,52.2,48.0,29.86,NNW,335,0.0,5.0,86,0.00,,,0.00,meteohub,2013-05-24 09:22:00,
2013-05-24 05:27:00,51.8,46.8,29.86,NW,304,1.0,5.0,83,0.00,,,0.00,meteohub,2013-05-24 09:27:00,
2013-05-24 05:32:00,51.4,46.8,29.86,NNW,336,2.0,6.0,84,0.00,,,0.00,meteohub,2013-05-24 09:32:00,
2013-05-24 05:37:00,51.3,46.6,29.86,NW,315,0.0,6.0,84,0.00,,,0.00,meteohub,2013-05-24 09:37:00,
2013-05-24 05:42:00,51.1,46.8,29.87,WNW,287,2.0,6.0,85,0.00,,,0.00,meteohub,2013-05-24 09:42:00,
2013-05-24 05:47:00,50.7,45.7,29.87,NNW,330,0.0,5.0,83,0.00,,,0.00,meteohub,2013-05-24 09:47:00,
2013-05-24 05:52:00,50.7,45.7,29.87,NNW,340,1.0,5.0,83,0.00,,,0.00,meteohub,2013-05-24 09:52:00,
2013-05-24 05:57:00,50.5,45.5,29.88,NNW,334,3.0,5.0,83,0.00,,,0.00,meteohub,2013-05-24 09:57:00,
2013-05-24 06:02:00,50.5,46.2,29.88,NW,323,3.0,4.0,85,0.00,,,0.00,meteohub,2013-05-24 10:02:00,
2013-05-24 06:07:00,50.4,45.7,29.89,NNW,327,0.0,6.0,84,0.00,,,0.00,meteohub,2013-05-24 10:07:00,
2013-05-24 06:12:00,50.4,45.1,29.89,NNW,331,2.0,6.0,82,0.00,,,0.00,meteohub,2013-05-24 10:12:00,
2013-05-24 06:17:00,50.2,44.6,29.89,NW,304,0.0,6.0,81,0.00,,,0.00,meteohub,2013-05-24 10:17:00,
2013-05-24 06:22:00,50.0,44.8,29.90,NW,313,1.0,5.0,82,0.00,,,0.00,meteohub,2013-05-24 10:22:00,
2013-05-24 06:27:00,49.8,44.6,29.90,WNW,301,0.0,5.0,82,0.00,,,0.00,meteohub,2013-05-24 10:27:00,
2013-05-24 06:32:00,49.8,44.8,29.90,WNW,302,0.0,4.0,83,0.00,,,0.00,meteohub,2013-05-24 10:32:00,
2013-05-24 06:37:00,49.8,45.1,29.91,NNW,331,0.0,4.0,84,0.00,,,0.00,meteohub,2013-05-24 10:37:00,
2013-05-24 06:42:00,49.8,44.8,29.91,WNW,289,1.0,4.0,83,0.00,,,0.00,meteohub,2013-05-24 10:42:00,
2013-05-24 06:47:00,49.8,44.8,29.92,NNW,330,1.0,4.0,83,0.00,,,0.00,meteohub,2013-05-24 10:47:00,
2013-05-24 06:52:00,49.8,44.8,29.92,NNW,332,2.0,7.0,83,0.00,,,0.00,meteohub,2013-05-24 10:52:00,
2013-05-24 06:57:00,49.6,44.8,29.93,NNW,327,5.0,8.0,83,0.00,,,0.00,meteohub,2013-05-24 10:57:00,
2013-05-24 07:02:00,49.6,44.4,29.92,NW,313,1.0,11.0,82,0.00,,,0.00,meteohub,2013-05-24 11:02:00,
2013-05-24 07:07:00,49.5,44.2,29.93,WNW,284,1.0,11.0,82,0.00,,,0.00,meteohub,2013-05-24 11:07:00,
2013-05-24 07:12:00,49.5,44.2,29.93,WNW,301,2.0,11.0,82,0.00,,,0.00,meteohub,2013-05-24 11:12:00,
2013-05-24 07:17:00,49.5,44.2,29.93,NW,304,0.0,5.0,82,0.00,,,0.00,meteohub,2013-05-24 11:17:00,
2013-05-24 07:22:00,49.3,44.1,29.93,SE,135,0.0,4.0,82,0.00,,,0.00,meteohub,2013-05-24 11:22:00,
2013-05-24 07:27:00,49.3,44.4,29.94,WNW,297,3.0,5.0,83,0.00,,,0.00,meteohub,2013-05-24 11:27:00,
2013-05-24 07:32:00,49.5,44.8,29.94,NNW,330,1.0,5.0,84,0.00,,,0.00,meteohub,2013-05-24 11:32:00,
2013-05-24 07:37:00,49.5,44.8,29.94,WNW,298,3.0,5.0,84,0.00,,,0.00,meteohub,2013-05-24 11:37:00,
2013-05-24 07:42:00,49.3,44.4,29.94,NW,310,1.0,4.0,83,0.00,,,0.00,meteohub,2013-05-24 11:42:00,
2013-05-24 07:47:00,49.3,43.7,29.95,NW,319,2.0,6.0,81,0.00,,,0.00,meteohub,2013-05-24 11:47:00,
2013-05-24 07:52:00,48.9,43.3,29.95,NW,315,0.0,7.0,81,0.00,,,0.00,meteohub,2013-05-24 11:52:00,
2013-05-24 07:57:00,48.9,43.3,29.95,NNW,328,3.0,7.0,81,0.00,,,0.00,meteohub,2013-05-24 11:57:00,
2013-05-24 08:02:00,48.7,42.8,29.95,WNW,301,2.0,9.0,80,0.00,,,0.00,meteohub,2013-05-24 12:02:00,
2013-05-24 08:07:00,48.7,42.8,29.96,NW,309,2.0,9.0,80,0.00,,,0.00,meteohub,2013-05-24 12:07:00,
2013-05-24 08:12:00,48.7,44.1,29.96,WNW,302,2.0,9.0,84,0.00,,,0.00,meteohub,2013-05-24 12:12:00,
2013-05-24 08:17:00,48.6,43.0,29.96,North,350,2.0,7.0,81,0.00,,,0.00,meteohub,2013-05-24 12:17:00,
2013-05-24 08:22:00,48.6,42.6,29.96,North,0,1.0,7.0,80,0.00,,,0.00,meteohub,2013-05-24 12:22:00,
2013-05-24 08:27:00,48.6,42.6,29.96,WNW,300,0.0,7.0,80,0.00,,,0.00,meteohub,2013-05-24 12:27:00,
2013-05-24 08:32:00,48.6,43.3,29.98,NW,317,2.0,4.0,82,0.00,,,0.00,meteohub,2013-05-24 12:32:00,
2013-05-24 08:37:00,48.6,43.3,29.97,NNW,337,2.0,5.0,82,0.00,,,0.00,meteohub,2013-05-24 12:37:00,
2013-05-24 08:42:00,48.6,43.0,29.97,WNW,295,2.0,5.0,81,0.00,,,0.00,meteohub,2013-05-24 12:42:00,
2013-05-24 08:47:00,48.6,43.3,29.97,NNW,327,0.0,5.0,82,0.00,,,0.00,meteohub,2013-05-24 12:47:00,
2013-05-24 08:52:00,48.6,43.0,29.98,NW,325,1.0,7.0,81,0.00,,,0.00,meteohub,2013-05-24 12:52:00,
2013-05-24 08:57:00,48.4,42.3,29.98,WNW,303,3.0,7.0,79,0.00,,,0.00,meteohub,2013-05-24 12:57:00,
2013-05-24 09:02:00,48.4,42.4,29.98,NNW,332,3.0,7.0,80,0.00,,,0.00,meteohub,2013-05-24 13:02:00,
2013-05-24 09:07:00,48.2,42.3,29.99,NW,317,3.0,8.0,80,0.00,,,0.00,meteohub,2013-05-24 13:07:00,
2013-05-24 09:12:00,48.2,42.6,29.99,NW,306,2.0,8.0,81,0.00,,,0.00,meteohub,2013-05-24 13:12:00,
2013-05-24 09:17:00,48.4,42.4,29.99,NW,325,4.0,8.0,80,0.00,,,0.00,meteohub,2013-05-24 13:17:00,
2013-05-24 09:22:00,48.2,42.3,29.99,NNW,333,6.0,8.0,80,0.00,,,0.00,meteohub,2013-05-24 13:22:00,
2013-05-24 09:27:00,48.0,42.8,29.99,North,5,4.0,8.0,82,0.00,,,0.00,meteohub,2013-05-24 13:27:00,
2013-05-24 09:32:00,48.0,41.9,29.99,WNW,299,1.0,8.0,79,0.00,,,0.00,meteohub,2013-05-24 13:32:00,
2013-05-24 09:37:00,48.0,42.8,29.99,WNW,300,3.0,9.0,82,0.00,,,0.00,meteohub,2013-05-24 13:37:00,
2013-05-24 09:42:00,48.4,42.3,29.99,NNW,336,4.0,9.0,79,0.00,,,0.00,meteohub,2013-05-24 13:42:00,
2013-05-24 09:47:00,48.6,42.6,29.99,NNW,333,1.0,7.0,80,0.00,,,0.00,meteohub,2013-05-24 13:47:00,
2013-05-24 09:52:00,48.7,42.8,29.99,NNW,342,0.0,7.0,80,0.00,,,0.00,meteohub,2013-05-24 13:52:00,
2013-05-24 09:57:00,48.9,42.6,29.99,NW,323,0.0,7.0,79,0.00,,,0.00,meteohub,2013-05-24 13:57:00,
2013-05-24 10:02:00,49.3,44.4,30.00,North,355,5.0,7.0,83,0.00,,,0.00,meteohub,2013-05-24 14:02:00,
2013-05-24 10:07:00,49.1,42.3,30.00,WNW,301,2.0,6.0,77,0.00,,,0.00,meteohub,2013-05-24 14:07:00,
2013-05-24 10:12:00,48.9,42.4,30.00,NW,311,2.0,6.0,78,0.00,,,0.00,meteohub,2013-05-24 14:12:00,
2013-05-24 10:17:00,48.9,42.4,30.00,WNW,290,4.0,7.0,78,0.00,,,0.00,meteohub,2013-05-24 14:17:00,
2013-05-24 10:22:00,48.7,41.9,30.01,NNW,342,5.0,12.0,77,0.00,,,0.00,meteohub,2013-05-24 14:22:00,
2013-05-24 10:27:00,48.7,42.3,30.01,SE,134,2.0,12.0,78,0.00,,,0.00,meteohub,2013-05-24 14:27:00,
2013-05-24 10:32:00,48.7,42.3,30.01,NNW,341,2.0,12.0,78,0.00,,,0.00,meteohub,2013-05-24 14:32:00,
2013-05-24 10:37:00,48.7,41.9,30.01,NW,315,4.0,9.0,77,0.00,,,0.00,meteohub,2013-05-24 14:37:00,
2013-05-24 10:42:00,48.7,42.4,30.01,WNW,300,3.0,9.0,79,0.00,,,0.00,meteohub,2013-05-24 14:42:00,
2013-05-24 10:47:00,48.9,42.6,30.02,WNW,298,3.0,9.0,79,0.00,,,0.00,meteohub,2013-05-24 14:47:00,
2013-05-24 10:52:00,49.1,42.6,30.02,WSW,256,0.0,6.0,78,0.00,,,0.00,meteohub,2013-05-24 14:52:00,
2013-05-24 10:57:00,49.3,42.1,30.01,NW,311,1.0,6.0,76,0.00,,,0.00,meteohub,2013-05-24 14:57:00,
2013-05-24 11:02:00,49.3,43.0,30.02,WNW,295,7.0,7.0,79,0.00,,,0.00,meteohub,2013-05-24 15:02:00,
2013-05-24 11:07:00,49.5,42.8,30.02,NNW,339,2.0,8.0,78,0.00,,,0.00,meteohub,2013-05-24 15:07:00,
2013-05-24 11:12:00,49.5,42.8,30.02,WNW,294,2.0,8.0,78,0.00,,,0.00,meteohub,2013-05-24 15:12:00,
2013-05-24 11:17:00,49.5,42.8,30.03,NNW,327,3.0,9.0,78,0.00,,,0.00,meteohub,2013-05-24 15:17:00,
2013-05-24 11:22:00,49.5,42.6,30.02,NNW,340,2.0,9.0,77,0.00,,,0.00,meteohub,2013-05-24 15:22:00,
2013-05-24 11:27:00,49.3,42.4,30.02,NNW,331,4.0,10.0,77,0.00,,,0.00,meteohub,2013-05-24 15:27:00,
2013-05-24 11:32:00,49.3,42.8,30.03,NNW,338,1.0,10.0,78,0.00,,,0.00,meteohub,2013-05-24 15:32:00,
2013-05-24 11:37:00,49.3,42.8,30.03,NW,323,3.0,10.0,78,0.00,,,0.00,meteohub,2013-05-24 15:37:00,
2013-05-24 11:42:00,48.9,42.1,30.03,West,274,2.0,9.0,77,0.00,,,0.00,meteohub,2013-05-24 15:42:00,
2013-05-24 11:47:00,48.6,41.4,30.04,NW,319,1.0,7.0,76,0.00,,,0.00,meteohub,2013-05-24 15:47:00,
2013-05-24 11:52:00,48.4,42.3,30.04,NNW,328,0.0,7.0,79,0.00,,,0.00,meteohub,2013-05-24 15:52:00,
2013-05-24 11:57:00,48.2,41.4,30.04,WNW,302,2.0,8.0,77,0.00,,,0.00,meteohub,2013-05-24 15:57:00,
2013-05-24 12:02:00,48.4,41.9,30.04,NW,313,0.0,8.0,78,0.00,,,0.00,meteohub,2013-05-24 16:02:00,
2013-05-24 12:07:00,48.2,41.0,30.04,NNW,328,2.0,8.0,76,0.00,,,0.00,meteohub,2013-05-24 16:07:00,
2013-05-24 12:12:00,48.2,41.7,30.04,WNW,296,1.0,8.0,78,0.00,,,0.00,meteohub,2013-05-24 16:12:00,
2013-05-24 12:17:00,48.7,42.4,30.04,SW,219,1.0,8.0,79,0.00,,,0.00,meteohub,2013-05-24 16:17:00,
2013-05-24 12:22:00,49.5,43.2,30.05,WNW,299,2.0,5.0,79,0.00,,,0.00,meteohub,2013-05-24 16:22:00,
2013-05-24 12:27:00,49.6,42.8,30.05,NNW,327,1.0,4.0,77,0.00,,,0.00,meteohub,2013-05-24 16:27:00,
2013-05-24 12:32:00,49.8,43.0,30.05,WNW,294,1.0,7.0,77,0.00,,,0.00,meteohub,2013-05-24 16:32:00,
2013-05-24 12:37:00,50.2,43.3,30.04,WNW,287,1.0,7.0,77,0.00,,,0.00,meteohub,2013-05-24 16:37:00,
2013-05-24 12:42:00,50.4,43.2,30.05,WNW,302,2.0,5.0,76,0.00,,,0.00,meteohub,2013-05-24 16:42:00,
2013-05-24 12:47:00,50.4,42.8,30.05,NW,325,1.0,5.0,75,0.00,,,0.00,meteohub,2013-05-24 16:47:00,
2013-05-24 12:52:00,50.4,42.4,30.05,NW,310,1.0,5.0,74,0.00,,,0.00,meteohub,2013-05-24 16:52:00,
2013-05-24 12:57:00,50.4,43.2,30.06,WNW,300,2.0,5.0,76,0.00,,,0.00,meteohub,2013-05-24 16:57:00,
2013-05-24 13:02:00,50.4,42.4,30.06,WNW,289,0.0,4.0,74,0.00,,,0.00,meteohub,2013-05-24 17:02:00,
2013-05-24 13:07:00,50.2,43.0,30.06,NNW,347,5.0,5.0,76,0.00,,,0.00,meteohub,2013-05-24 17:07:00,
2013-05-24 13:12:00,50.4,43.2,30.06,NW,306,3.0,6.0,76,0.00,,,0.00,meteohub,2013-05-24 17:12:00,
2013-05-24 13:17:00,50.4,42.1,30.06,NNW,329,3.0,6.0,73,0.00,,,0.00,meteohub,2013-05-24 17:17:00,
2013-05-24 13:22:00,50.4,42.4,30.06,NW,325,2.0,6.0,74,0.00,,,0.00,meteohub,2013-05-24 17:22:00,
2013-05-24 13:27:00,50.4,42.8,30.07,NW,326,2.0,6.0,75,0.00,,,0.00,meteohub,2013-05-24 17:27:00,
2013-05-24 13:32:00,50.4,42.4,30.06,WNW,302,2.0,6.0,74,0.00,,,0.00,meteohub,2013-05-24 17:32:00,
2013-05-24 13:37:00,50.2,41.9,30.06,NNW,331,3.0,6.0,73,0.00,,,0.00,meteohub,2013-05-24 17:37:00,
2013-05-24 13:42:00,49.6,41.4,30.07,NW,318,1.0,8.0,73,0.00,,,0.00,meteohub,2013-05-24 17:42:00,
2013-05-24 13:47:00,49.6,41.7,30.08,NNW,327,3.0,8.0,74,0.00,,,0.00,meteohub,2013-05-24 17:47:00,
2013-05-24 13:52:00,49.8,42.3,30.07,NW,317,1.0,8.0,75,0.00,,,0.00,meteohub,2013-05-24 17:52:00,
2013-05-24 13:57:00,50.5,43.5,30.07,NNW,329,4.0,6.0,77,0.00,,,0.00,meteohub,2013-05-24 17:57:00,
2013-05-24 14:02:00,52.0,43.5,30.07,NNW,337,1.0,6.0,73,0.00,,,0.00,meteohub,2013-05-24 18:02:00,
2013-05-24 14:07:00,52.0,42.4,30.07,West,275,2.0,6.0,70,0.00,,,0.00,meteohub,2013-05-24 18:07:00,
2013-05-24 14:12:00,52.0,42.1,30.06,WNW,301,2.0,6.0,69,0.00,,,0.00,meteohub,2013-05-24 18:12:00,
2013-05-24 14:17:00,51.6,41.0,30.06,WNW,302,1.0,7.0,67,0.00,,,0.00,meteohub,2013-05-24 18:17:00,
2013-05-24 14:22:00,51.6,42.4,30.06,WNW,296,4.0,8.0,71,0.00,,,0.00,meteohub,2013-05-24 18:22:00,
2013-05-24 14:27:00,51.6,41.7,30.06,NW,315,1.0,8.0,69,0.00,,,0.00,meteohub,2013-05-24 18:27:00,
2013-05-24 14:32:00,52.2,41.9,30.06,WNW,298,4.0,8.0,68,0.00,,,0.00,meteohub,2013-05-24 18:32:00,
2013-05-24 14:37:00,52.9,43.0,30.06,NW,307,1.0,8.0,69,0.00,,,0.00,meteohub,2013-05-24 18:37:00,
2013-05-24 14:42:00,53.1,42.8,30.06,NW,311,4.0,8.0,68,0.00,,,0.00,meteohub,2013-05-24 18:42:00,
2013-05-24 14:47:00,52.5,41.5,30.06,NNW,334,5.0,8.0,66,0.00,,,0.00,meteohub,2013-05-24 18:47:00,
2013-05-24 14:52:00,52.2,41.2,30.06,NW,311,3.0,11.0,66,0.00,,,0.00,meteohub,2013-05-24 18:52:00,
2013-05-24 14:57:00,53.4,42.3,30.07,WNW,302,2.0,11.0,66,0.00,,,0.00,meteohub,2013-05-24 18:57:00,
2013-05-24 15:02:00,54.5,42.1,30.07,NW,306,1.0,11.0,63,0.00,,,0.00,meteohub,2013-05-24 19:02:00,
2013-05-24 15:07:00,54.5,42.1,30.07,West,281,2.0,8.0,63,0.00,,,0.00,meteohub,2013-05-24 19:07:00,
2013-05-24 15:12:00,52.9,39.4,30.07,NW,319,4.0,8.0,60,0.00,,,0.00,meteohub,2013-05-24 19:12:00,
2013-05-24 15:17:00,52.2,39.9,30.07,WNW,301,3.0,9.0,63,0.00,,,0.00,meteohub,2013-05-24 19:17:00,
2013-05-24 15:22:00,52.3,40.5,30.07,NW,317,2.0,9.0,64,0.00,,,0.00,meteohub,2013-05-24 19:22:00,
2013-05-24 15:27:00,52.2,40.3,30.08,NW,323,2.0,11.0,64,0.00,,,0.00,meteohub,2013-05-24 19:27:00,
2013-05-24 15:32:00,52.2,40.3,30.08,North,10,2.0,11.0,64,0.00,,,0.00,meteohub,2013-05-24 19:32:00,
2013-05-24 15:37:00,52.3,40.5,30.08,WNW,302,4.0,11.0,64,0.00,,,0.00,meteohub,2013-05-24 19:37:00,
2013-05-24 15:42:00,52.0,38.1,30.08,NW,325,5.0,7.0,59,0.00,,,0.00,meteohub,2013-05-24 19:42:00,
2013-05-24 15:47:00,51.8,38.8,30.08,ESE,113,2.0,12.0,61,0.00,,,0.00,meteohub,2013-05-24 19:47:00,
2013-05-24 15:52:00,52.3,40.1,30.08,NW,304,5.0,12.0,63,0.00,,,0.00,meteohub,2013-05-24 19:52:00,
2013-05-24 15:57:00,52.0,39.4,30.09,WNW,302,2.0,12.0,62,0.00,,,0.00,meteohub,2013-05-24 19:57:00,
2013-05-24 16:02:00,51.4,39.2,30.09,ESE,121,4.0,11.0,63,0.00,,,0.00,meteohub,2013-05-24 20:02:00,
2013-05-24 16:07:00,51.1,38.5,30.09,North,350,1.0,11.0,62,0.00,,,0.00,meteohub,2013-05-24 20:07:00,
2013-05-24 16:12:00,51.1,38.8,30.09,NW,316,2.0,11.0,63,0.00,,,0.00,meteohub,2013-05-24 20:12:00,
2013-05-24 16:17:00,51.3,39.9,30.09,NW,325,6.0,11.0,65,0.00,,,0.00,meteohub,2013-05-24 20:17:00,
2013-05-24 16:22:00,51.4,39.2,30.09,NW,307,4.0,11.0,63,0.00,,,0.00,meteohub,2013-05-24 20:22:00,
2013-05-24 16:27:00,52.3,40.1,30.10,NNW,328,1.0,11.0,63,0.00,,,0.00,meteohub,2013-05-24 20:27:00,
2013-05-24 16:32:00,51.6,37.8,30.09,NW,314,5.0,11.0,59,0.00,,,0.00,meteohub,2013-05-24 20:32:00,
2013-05-24 16:37:00,50.5,37.6,30.09,NW,312,4.0,10.0,61,0.00,,,0.00,meteohub,2013-05-24 20:37:00,
2013-05-24 16:42:00,50.5,38.8,30.10,NW,319,6.0,10.0,64,0.00,,,0.00,meteohub,2013-05-24 20:42:00,
2013-05-24 16:47:00,50.4,38.3,30.10,NW,319,3.0,10.0,63,0.00,,,0.00,meteohub,2013-05-24 20:47:00,
2013-05-24 16:52:00,50.2,38.1,30.10,NW,325,1.0,10.0,63,0.00,,,0.00,meteohub,2013-05-24 20:52:00,
2013-05-24 16:57:00,49.8,37.4,30.10,NW,313,7.0,13.0,62,0.00,,,0.00,meteohub,2013-05-24 20:57:00,
2013-05-24 17:02:00,50.2,38.1,30.10,NW,305,4.0,13.0,63,0.00,,,0.00,meteohub,2013-05-24 21:02:00,
2013-05-24 17:07:00,50.5,38.8,30.10,WNW,296,6.0,13.0,64,0.00,,,0.00,meteohub,2013-05-24 21:07:00,
2013-05-24 17:12:00,51.3,39.0,30.10,NW,321,8.0,10.0,63,0.00,,,0.00,meteohub,2013-05-24 21:12:00,
2013-05-24 17:17:00,51.6,37.4,30.09,ENE,74,1.0,11.0,58,0.00,,,0.00,meteohub,2013-05-24 21:17:00,
2013-05-24 17:22:00,52.0,36.9,30.10,NNW,331,5.0,11.0,56,0.00,,,0.00,meteohub,2013-05-24 21:22:00,
2013-05-24 17:27:00,51.6,37.8,30.11,NW,305,3.0,11.0,59,0.00,,,0.00,meteohub,2013-05-24 21:27:00,
2013-05-24 17:32:00,51.8,38.8,30.11,NE,49,3.0,11.0,61,0.00,,,0.00,meteohub,2013-05-24 21:32:00,
2013-05-24 17:37:00,51.6,37.4,30.11,ESE,114,2.0,10.0,58,0.00,,,0.00,meteohub,2013-05-24 21:37:00,
2013-05-24 17:42:00,52.0,39.4,30.11,WNW,302,5.0,11.0,62,0.00,,,0.00,meteohub,2013-05-24 21:42:00,
2013-05-24 17:47:00,51.8,37.9,30.11,NW,324,3.0,11.0,59,0.00,,,0.00,meteohub,2013-05-24 21:47:00,
2013-05-24 17:52:00,52.0,38.1,30.11,NW,309,1.0,9.0,59,0.00,,,0.00,meteohub,2013-05-24 21:52:00,
2013-05-24 17:57:00,51.8,37.6,30.12,NW,319,1.0,9.0,58,0.00,,,0.00,meteohub,2013-05-24 21:57:00,
2013-05-24 18:02:00,51.6,38.7,30.12,WNW,298,2.0,9.0,61,0.00,,,0.00,meteohub,2013-05-24 22:02:00,
2013-05-24 18:19:00,52.2,39.6,30.13,NW,309,1.0,9.0,62,0.00,,,0.00,meteohub,2013-05-24 22:19:00,
2013-05-24 18:25:00,52.5,39.4,30.13,NNW,346,4.0,9.0,61,0.00,,,0.00,meteohub,2013-05-24 22:25:00,
2013-05-24 18:31:00,52.9,39.0,30.13,NW,315,3.0,9.0,59,0.00,,,0.00,meteohub,2013-05-24 22:31:00,
2013-05-24 18:37:00,52.5,37.2,30.14,WNW,291,3.0,9.0,56,0.00,,,0.00,meteohub,2013-05-24 22:37:00,
2013-05-24 18:42:00,51.6,36.9,30.14,SSE,157,0.0,9.0,57,0.00,,,0.00,meteohub,2013-05-24 22:42:00,
2013-05-24 18:47:00,51.1,36.9,30.14,NW,318,2.0,9.0,58,0.00,,,0.00,meteohub,2013-05-24 22:47:00,
2013-05-24 18:52:00,50.5,37.6,30.14,NE,45,0.0,6.0,61,0.00,,,0.00,meteohub,2013-05-24 22:52:00,
2013-05-24 18:57:00,50.4,36.5,30.14,WNW,288,3.0,4.0,59,0.00,,,0.00,meteohub,2013-05-24 22:57:00,
2013-05-24 19:02:00,49.8,36.1,30.14,NW,306,3.0,8.0,59,0.00,,,0.00,meteohub,2013-05-24 23:02:00,
2013-05-24 19:07:00,49.6,37.2,30.15,NW,319,0.0,8.0,62,0.00,,,0.00,meteohub,2013-05-24 23:07:00,
2013-05-24 19:12:00,49.6,37.9,30.15,NNW,329,0.0,8.0,64,0.00,,,0.00,meteohub,2013-05-24 23:12:00,
2013-05-24 19:19:00,49.6,36.7,30.15,NW,315,1.0,6.0,61,0.00,,,0.00,meteohub,2013-05-24 23:19:00,
2013-05-24 19:25:00,49.5,37.0,30.15,NNW,339,1.0,7.0,62,0.00,,,0.00,meteohub,2013-05-24 23:25:00,
2013-05-24 19:31:00,49.5,37.8,30.16,NW,320,1.0,7.0,64,0.00,,,0.00,meteohub,2013-05-24 23:31:00,
2013-05-24 19:37:00,49.3,37.2,30.16,WNW,288,0.0,4.0,63,0.00,,,0.00,meteohub,2013-05-24 23:37:00,
2013-05-24 19:42:00,48.9,36.5,30.16,NNW,340,1.0,5.0,62,0.00,,,0.00,meteohub,2013-05-24 23:42:00,
2013-05-24 19:47:00,48.6,35.8,30.16,NW,306,1.0,5.0,61,0.00,,,0.00,meteohub,2013-05-24 23:47:00,
2013-05-24 19:52:00,48.2,35.8,30.17,North,350,1.0,6.0,62,0.00,,,0.00,meteohub,2013-05-24 23:52:00,
2013-05-24 19:57:00,47.8,35.8,30.16,NW,309,2.0,6.0,63,0.00,,,0.00,meteohub,2013-05-24 23:57:00,
2013-05-24 20:02:00,47.5,34.7,30.17,West,279,1.0,7.0,61,0.00,,,0.00,meteohub,2013-05-25 00:02:00,
2013-05-24 20:07:00,47.1,35.6,30.17,West,261,1.0,7.0,64,0.00,,,0.00,meteohub,2013-05-25 00:07:00,
2013-05-24 20:12:00,46.9,35.8,30.17,WSW,245,1.0,6.0,65,0.00,,,0.00,meteohub,2013-05-25 00:12:00,
2013-05-24 20:17:00,46.8,35.6,30.18,NW,321,3.0,6.0,65,0.00,,,0.00,meteohub,2013-05-25 00:17:00,
2013-05-24 20:22:00,46.8,35.2,30.18,WNW,300,3.0,6.0,64,0.00,,,0.00,meteohub,2013-05-25 00:22:00,
2013-05-24 20:27:00,46.6,35.4,30.19,NW,313,1.0,5.0,65,0.00,,,0.00,meteohub,2013-05-25 00:27:00,
2013-05-24 20:32:00,46.4,34.9,30.19,NW,306,3.0,6.0,64,0.00,,,0.00,meteohub,2013-05-25 00:32:00,
2013-05-24 20:38:00,46.2,35.1,30.19,NW,319,0.0,6.0,65,0.00,,,0.00,meteohub,2013-05-25 00:38:00,
2013-05-24 20:44:00,46.0,34.9,30.19,NW,323,2.0,7.0,65,0.00,,,0.00,meteohub,2013-05-25 00:44:00,
2013-05-24 20:50:00,45.9,34.0,30.19,NW,319,1.0,7.0,63,0.00,,,0.00,meteohub,2013-05-25 00:50:00,
2013-05-24 20:56:00,45.9,33.6,30.19,WNW,300,2.0,6.0,62,0.00,,,0.00,meteohub,2013-05-25 00:56:00,
2013-05-24 21:02:00,45.9,33.6,30.19,WNW,291,1.0,6.0,62,0.00,,,0.00,meteohub,2013-05-25 01:02:00,
2013-05-24 21:07:00,45.7,33.8,30.19,WNW,297,0.0,10.0,63,0.00,,,0.00,meteohub,2013-05-25 01:07:00,
2013-05-24 21:12:00,45.3,33.4,30.19,NNW,329,1.0,10.0,63,0.00,,,0.00,meteohub,2013-05-25 01:12:00,
2013-05-24 21:17:00,45.3,33.8,30.19,NW,322,1.0,10.0,64,0.00,,,0.00,meteohub,2013-05-25 01:17:00,
2013-05-24 21:22:00,45.1,33.3,30.19,WNW,302,3.0,7.0,63,0.00,,,0.00,meteohub,2013-05-25 01:22:00,
2013-05-24 21:27:00,45.1,32.5,30.19,North,350,3.0,8.0,61,0.00,,,0.00,meteohub,2013-05-25 01:27:00,
2013-05-24 21:32:00,45.1,33.6,30.20,NW,317,1.0,9.0,64,0.00,,,0.00,meteohub,2013-05-25 01:32:00,
2013-05-24 21:38:00,45.0,33.1,30.20,NNW,333,2.0,9.0,63,0.00,,,0.00,meteohub,2013-05-25 01:38:00,
2013-05-24 21:45:00,44.8,33.3,30.20,WNW,302,1.0,8.0,64,0.00,,,0.00,meteohub,2013-05-25 01:45:00,
2013-05-24 21:51:00,44.6,34.0,30.21,NNW,344,3.0,11.0,66,0.00,,,0.00,meteohub,2013-05-25 01:51:00,
2013-05-24 21:57:00,44.6,34.3,30.21,NNW,334,1.0,11.0,67,0.00,,,0.00,meteohub,2013-05-25 01:57:00,
2013-05-24 22:02:00,44.6,34.0,30.21,WNW,286,3.0,7.0,66,0.00,,,0.00,meteohub,2013-05-25 02:02:00,
2013-05-24 22:09:00,44.6,34.0,30.22,NNW,333,0.0,7.0,66,0.00,,,0.00,meteohub,2013-05-25 02:09:00,
2013-05-24 22:15:00,44.4,34.5,30.22,WNW,294,0.0,6.0,68,0.00,,,0.00,meteohub,2013-05-25 02:15:00,
2013-05-24 22:21:00,44.4,34.2,30.22,NW,309,1.0,5.0,67,0.00,,,0.00,meteohub,2013-05-25 02:21:00,
2013-05-24 22:27:00,44.2,34.3,30.22,WNW,288,0.0,3.0,68,0.00,,,0.00,meteohub,2013-05-25 02:27:00,
2013-05-24 22:32:00,44.2,34.0,30.22,NW,312,2.0,3.0,67,0.00,,,0.00,meteohub,2013-05-25 02:32:00,
2013-05-24 22:37:00,44.2,34.3,30.23,NNW,330,0.0,4.0,68,0.00,,,0.00,meteohub,2013-05-25 02:37:00,
2013-05-24 22:42:00,44.2,34.0,30.23,ESE,108,1.0,4.0,67,0.00,,,0.00,meteohub,2013-05-25 02:42:00,
2013-05-24 22:47:00,44.4,34.9,30.22,NW,323,0.0,6.0,69,0.00,,,0.00,meteohub,2013-05-25 02:47:00,
2013-05-24 22:52:00,44.2,35.1,30.22,WNW,299,2.0,6.0,70,0.00,,,0.00,meteohub,2013-05-25 02:52:00,
2013-05-24 22:57:00,44.2,35.8,30.23,WNW,299,1.0,6.0,72,0.00,,,0.00,meteohub,2013-05-25 02:57:00,
2013-05-24 23:02:00,44.1,35.2,30.23,WNW,303,2.0,3.0,71,0.00,,,0.00,meteohub,2013-05-25 03:02:00,
2013-05-24 23:07:00,43.7,33.8,30.23,NNW,337,1.0,6.0,68,0.00,,,0.00,meteohub,2013-05-25 03:07:00,
2013-05-24 23:12:00,43.5,33.3,30.23,NW,319,2.0,6.0,67,0.00,,,0.00,meteohub,2013-05-25 03:12:00,
2013-05-24 23:17:00,43.5,32.2,30.23,West,273,0.0,6.0,64,0.00,,,0.00,meteohub,2013-05-25 03:17:00,
2013-05-24 23:24:00,43.5,32.2,30.23,NNW,338,1.0,7.0,64,0.00,,,0.00,meteohub,2013-05-25 03:24:00,
2013-05-24 23:30:00,43.3,32.4,30.23,NNW,331,2.0,4.0,65,0.00,,,0.00,meteohub,2013-05-25 03:30:00,
2013-05-24 23:37:00,43.3,32.7,30.23,NW,325,1.0,6.0,66,0.00,,,0.00,meteohub,2013-05-25 03:37:00,
2013-05-24 23:42:00,43.2,32.5,30.22,NNW,335,0.0,6.0,66,0.00,,,0.00,meteohub,2013-05-25 03:42:00,
2013-05-24 23:47:00,43.0,32.7,30.23,NE,37,1.0,6.0,67,0.00,,,0.00,meteohub,2013-05-25 03:47:00,
2013-05-24 23:52:00,42.8,32.2,30.23,WNW,302,2.0,8.0,66,0.00,,,0.00,meteohub,2013-05-25 03:52:00,
2013-05-24 23:57:00,42.6,31.6,30.23,NNW,329,0.0,8.0,65,0.00,,,0.00,meteohub,2013-05-25 03:57:00,